TimeEDT,TemperatureF,Dew PointF,Humidity,Sea Level PressureIn,VisibilityMPH,Wind Direction,Wind SpeedMPH,Gust SpeedMPH,PrecipitationIn,Events,Conditions,WindDirDegrees,DateUTC
12:10 AM,37.0,37.0,100,30.09,10.0,Calm,Calm,-,N/A,,Overcast,0,2012-10-07 04:10:00
12:30 AM,37.0,37.0,100,30.09,10.0,WSW,3.5,-,N/A,,Overcast,250,2012-10-07 04:30:00
12:50 AM,37.0,37.0,100,30.09,10.0,WSW,3.5,-,N/A,,Overcast,240,2012-10-07 04:50:00
1:10 AM,37.0,37.0,100,30.09,10.0,WSW,3.5,-,N/A,,Overcast,250,2012-10-07 05:10:00
1:31 AM,37.0,37.0,100,30.09,10.0,WSW,3.5,-,N/A,,Overcast,240,2012-10-07 05:31:00
1:51 AM,36.9,36.9,100,30.09,10.0,Calm,Calm,-,N/A,,Overcast,0,2012-10-07 05:51:00
2:11 AM,35.8,35.8,100,30.08,10.0,Calm,Calm,-,N/A,,Mostly Cloudy,0,2012-10-07 06:11:00
2:31 AM,34.7,34.7,100,30.09,10.0,Calm,Calm,-,N/A,,Clear,0,2012-10-07 06:31:00
3:11 AM,34.7,34.7,100,30.09,10.0,Calm,Calm,-,N/A,,Mostly Cloudy,0,2012-10-07 07:11:00
3:31 AM,34.7,34.7,100,30.09,10.0,Calm,Calm,-,N/A,,Overcast,0,2012-10-07 07:31:00
3:51 AM,34.7,34.7,100,30.08,10.0,Calm,Calm,-,N/A,,Overcast,0,2012-10-07 07:51:00
4:11 AM,34.7,34.7,100,30.08,10.0,Calm,Calm,-,N/A,,Overcast,0,2012-10-07 08:11:00
4:32 AM,34.7,34.7,100,30.08,10.0,WSW,4.6,-,N/A,,Overcast,250,2012-10-07 08:32:00
4:52 AM,34.7,34.7,100,30.08,10.0,WSW,4.6,-,N/A,,Overcast,240,2012-10-07 08:52:00
5:12 AM,35.2,35.2,100,30.08,10.0,West,4.6,-,N/A,,Overcast,260,2012-10-07 09:12:00
5:32 AM,34.9,34.9,100,30.08,10.0,WSW,3.5,-,N/A,,Overcast,250,2012-10-07 09:32:00
5:52 AM,35.6,35.6,100,30.08,10.0,WSW,4.6,-,N/A,,Overcast,240,2012-10-07 09:52:00
6:12 AM,34.7,34.7,100,30.08,10.0,WNW,4.6,-,N/A,,Overcast,290,2012-10-07 10:12:00
6:32 AM,34.7,34.7,100,30.08,10.0,Calm,Calm,-,N/A,,Overcast,0,2012-10-07 10:32:00
6:52 AM,35.6,35.6,100,30.08,10.0,Calm,Calm,-,N/A,,Overcast,0,2012-10-07 10:52:00
7:13 AM,37.0,37.0,100,30.09,10.0,Calm,Calm,-,N/A,,Overcast,0,2012-10-07 11:13:00
7:53 AM,37.0,37.0,100,30.09,10.0,Calm,Calm,-,N/A,,Overcast,0,2012-10-07 11:53:00
8:13 AM,37.0,37.0,100,30.09,10.0,Calm,Calm,-,N/A,,Overcast,0,2012-10-07 12:13:00
8:33 AM,37.0,37.0,100,30.09,10.0,Calm,Calm,-,N/A,,Overcast,0,2012-10-07 12:33:00
8:53 AM,37.0,37.0,100,30.10,10.0,WNW,3.5,-,N/A,,Overcast,300,2012-10-07 12:53:00
9:13 AM,37.4,37.4,100,30.10,10.0,Calm,Calm,-,N/A,,Overcast,0,2012-10-07 13:13:00
9:33 AM,39.2,39.0,99,30.10,10.0,WNW,3.5,-,N/A,,Overcast,290,2012-10-07 13:33:00
9:54 AM,39.6,39.2,99,30.10,10.0,West,4.6,-,N/A,,Mostly Cloudy,270,2012-10-07 13:54:00
10:14 AM,40.8,38.5,91,30.09,10.0,WSW,5.8,-,N/A,,Mostly Cloudy,240,2012-10-07 14:14:00
10:34 AM,42.1,38.1,86,30.09,10.0,SW,4.6,-,N/A,,Overcast,230,2012-10-07 14:34:00
10:54 AM,42.3,37.0,82,30.09,10.0,West,4.6,-,N/A,,Overcast,280,2012-10-07 14:54:00
11:14 AM,42.3,37.4,83,30.10,10.0,West,4.6,-,N/A,,Overcast,280,2012-10-07 15:14:00
11:34 AM,42.3,36.5,80,30.10,10.0,WNW,4.6,-,N/A,,Overcast,290,2012-10-07 15:34:00
11:54 AM,43.5,36.5,76,30.09,10.0,Calm,Calm,-,N/A,,Overcast,0,2012-10-07 15:54:00
12:14 PM,43.5,35.8,74,30.08,10.0,West,4.6,-,N/A,,Mostly Cloudy,280,2012-10-07 16:14:00
12:35 PM,47.3,36.1,65,30.08,10.0,SSW,6.9,-,N/A,,Mostly Cloudy,210,2012-10-07 16:35:00
12:50 PM,48.6,33.8,57,30.08,10.0,South,4.6,16.1,N/A,,Mostly Cloudy,180,2012-10-07 16:50:00
1:10 PM,50.0,35.1,57,30.07,10.0,West,10.4,-,N/A,,Mostly Cloudy,270,2012-10-07 17:10:00
1:30 PM,50.0,35.4,57,30.07,10.0,SW,9.2,-,N/A,,Overcast,230,2012-10-07 17:30:00
1:50 PM,42.4,36.7,80,30.07,10.0,NNW,6.9,-,N/A,Rain,Light Rain,330,2012-10-07 17:50:00
2:10 PM,42.6,38.1,84,30.06,10.0,North,3.5,-,N/A,,Overcast,360,2012-10-07 18:10:00
2:30 PM,50.0,35.2,57,30.05,10.0,West,8.1,-,N/A,,Overcast,270,2012-10-07 18:30:00
2:51 PM,48.4,34.2,58,30.05,10.0,West,9.2,-,N/A,,Mostly Cloudy,280,2012-10-07 18:51:00
3:11 PM,44.1,35.1,71,30.06,10.0,West,11.5,16.1,N/A,Rain,Light Rain,270,2012-10-07 19:11:00
3:31 PM,45.5,35.2,67,30.06,10.0,West,8.1,-,N/A,,Overcast,270,2012-10-07 19:31:00
3:51 PM,45.3,35.8,69,30.05,10.0,West,8.1,-,N/A,,Overcast,270,2012-10-07 19:51:00
4:11 PM,46.2,35.8,67,30.04,10.0,West,9.2,-,N/A,,Overcast,280,2012-10-07 20:11:00
4:31 PM,46.9,34.2,61,30.04,10.0,WSW,6.9,-,N/A,,Overcast,240,2012-10-07 20:31:00
4:52 PM,47.3,33.1,58,30.04,10.0,WSW,9.2,-,N/A,,Overcast,240,2012-10-07 20:52:00
5:12 PM,45.5,31.1,57,30.04,10.0,WSW,8.1,-,N/A,,Mostly Cloudy,240,2012-10-07 21:12:00
5:32 PM,45.0,31.6,60,30.04,10.0,WSW,6.9,-,N/A,,Overcast,240,2012-10-07 21:32:00
5:52 PM,43.7,31.6,63,30.04,10.0,West,8.1,-,N/A,,Mostly Cloudy,270,2012-10-07 21:52:00
6:12 PM,42.8,31.6,65,30.05,10.0,WSW,8.1,-,N/A,,Mostly Cloudy,250,2012-10-07 22:12:00
6:32 PM,42.3,31.6,66,30.05,10.0,SSW,8.1,-,N/A,,Overcast,210,2012-10-07 22:32:00
6:52 PM,41.0,32.4,71,30.05,10.0,SSW,4.6,-,N/A,,Overcast,210,2012-10-07 22:52:00
7:13 PM,40.5,33.1,75,30.05,10.0,Calm,Calm,-,N/A,,Overcast,0,2012-10-07 23:13:00
7:33 PM,39.7,32.2,74,30.05,10.0,Calm,Calm,-,N/A,,Overcast,0,2012-10-07 23:33:00
7:53 PM,39.6,33.1,78,30.06,10.0,SW,3.5,-,N/A,,Mostly Cloudy,220,2012-10-07 23:53:00
8:13 PM,39.6,34.2,81,30.06,10.0,SW,4.6,-,N/A,,Mostly Cloudy,230,2012-10-08 00:13:00
8:53 PM,38.5,34.5,86,30.06,10.0,Calm,Calm,-,N/A,,Scattered Clouds,0,2012-10-08 00:53:00
9:13 PM,37.4,34.5,89,30.06,10.0,Calm,Calm,-,N/A,,Clear,0,2012-10-08 01:13:00
9:33 PM,37.0,34.5,91,30.06,10.0,Calm,Calm,-,N/A,,Clear,0,2012-10-08 01:33:00
9:54 PM,37.0,34.3,90,30.06,10.0,SW,3.5,-,N/A,,Clear,220,2012-10-08 01:54:00
10:14 PM,37.0,33.8,88,30.06,10.0,SW,4.6,-,N/A,,Clear,220,2012-10-08 02:14:00
10:34 PM,37.0,34.0,89,30.06,10.0,SW,3.5,-,N/A,,Clear,220,2012-10-08 02:34:00
10:54 PM,37.0,33.1,86,30.07,10.0,SW,4.6,-,N/A,,Clear,220,2012-10-08 02:54:00
11:14 PM,37.0,32.5,84,30.07,10.0,SW,5.8,-,N/A,,Clear,220,2012-10-08 03:14:00
11:34 PM,36.3,32.0,84,30.07,10.0,SW,3.5,-,N/A,,Clear,220,2012-10-08 03:34:00
11:54 PM,35.8,31.6,85,30.07,10.0,SW,5.8,-,N/A,,Clear,220,2012-10-08 03:54:00